Location: Unspecified
(0.0000°N, 0.0000°E)
Time: 10:35:13
(UTC+00:00)

S-56A Canister/Altair - Pass Details

Date: 07 October 2020
Orbit: 633 x 2499 km, 38.9° (Epoch: 28 October)

Event Time Altitude Azimuth Distance (km) Brightness Sun altitude
Rises 16:42:18 0° 334° (NNW) 6,118 12.4 16.2°
Reaches altitude 10° 16:49:58 10° 357° (N) 4,890 11.6 14.3°
Maximum altitude 16:55:42 13° 22° (NNE) 4,333 11.1 12.9°
Drops below altitude 10° 17:00:49 10° 48° (NE) 4,307 10.9 11.6°
Sets 17:06:30 0° 73° (ENE) 4,879 11.0 10.2°
